Date,TemperatureHighF,TemperatureAvgF,TemperatureLowF,DewpointHighF,DewpointAvgF,DewpointLowF,HumidityHigh,HumidityAvg,HumidityLow,PressureMaxIn,PressureMinIn,WindSpeedMaxMPH,WindSpeedAvgMPH,GustSpeedMaxMPH,PrecipitationSumIn
2013-7-1,51,50,48,49,47,46,95,91,83,29.91,29.60,0,0,0,1.39
2013-7-2,58,51,46,49,46,44,95,85,68,29.91,29.61,0,0,0,0.03
2013-7-3,54,50,47,49,47,45,95,88,78,30.07,29.91,0,0,0,0.02
2013-7-4,54,50,48,49,47,46,93,88,82,30.10,30.02,0,0,0,0.20
2013-7-5,53,50,48,49,48,46,95,93,86,30.11,30.06,0,0,0,0.50
2013-7-6,52,50,48,50,49,47,96,95,90,30.07,29.78,0,0,0,0.32
2013-7-7,55,51,49,51,48,46,96,89,76,29.78,29.59,0,0,0,0.60
2013-7-8,61,53,48,50,47,44,95,82,61,29.85,29.68,0,0,0,0.08
2013-7-9,65,55,47,52,48,44,94,79,61,30.01,29.84,0,0,0,0.00
2013-7-10,74,61,48,54,48,44,92,66,41,30.01,29.88,0,0,0,0.00
2013-7-11,73,63,52,53,50,47,87,65,46,29.92,29.88,0,0,0,0.00
2013-7-12,72,61,48,55,51,45,90,71,50,29.98,29.92,0,0,0,0.00
2013-7-13,63,56,53,54,52,50,92,85,72,30.22,29.98,0,0,0,0.00
2013-7-14,64,58,54,54,52,51,94,83,67,30.32,30.22,0,0,0,0.00
2013-7-15,65,58,52,55,52,49,91,82,68,30.32,30.23,0,0,0,0.00
2013-7-16,70,62,53,58,54,51,93,77,60,30.23,30.08,0,0,0,0.00
2013-7-17,80,68,57,60,55,51,81,64,47,30.09,30.00,1,0,0,0.00
2013-7-20,72,70,68,48,46,43,44,42,38,30.00,29.97,5,0,5,0.00
2013-7-21,76,69,64,48,46,42,49,43,36,29.98,29.86,2,0,2,0.00
2013-7-22,77,67,55,57,50,45,91,57,38,30.10,29.91,2,0,2,0.00
2013-7-23,70,59,49,58,53,47,94,82,64,30.10,30.02,0,0,0,0.00
2013-7-24,71,61,52,58,54,49,93,78,61,30.02,29.95,0,0,0,0.00
2013-7-25,66,60,56,58,55,54,92,84,71,30.10,29.99,0,0,0,0.00
2013-7-26,69,61,56,58,56,53,92,82,65,30.29,30.10,0,0,0,0.00
2013-7-27,72,62,53,59,55,51,94,80,59,30.32,30.26,0,0,0,0.00
2013-7-28,68,60,51,59,55,50,95,84,72,30.27,30.17,0,0,0,0.00
2013-7-29,66,59,54,58,55,53,95,87,73,30.18,30.15,0,0,0,0.00
2013-7-30,65,59,54,58,55,52,94,87,75,30.22,30.18,0,0,0,0.00
2013-7-31,65,59,56,57,55,53,95,85,73,30.23,30.14,0,0,0,0.01